Location: Bittkow
(50.3000°N, 19.0000°E)
Time: 12:41:24
(UTC+00:00)

USA 267 - Pass Details

Date: 19 September 2020
Orbit: 1101 x 1106 km, 123.0° (Epoch: 22 September)

Event Time Altitude Azimuth Distance (km) Brightness Sun altitude
Rises 02:29:08 0° 60° (ENE) 3,925 7.8 -18.8°
Reaches altitude 10° 02:31:37 10° 58° (ENE) 2,966 6.8 -18.4°
Maximum altitude 02:38:08 74° 336° (NNW) 1,146 3.3 -17.5°
Enters shadow 02:42:17 24° 255° (WSW) 2,084 4.1 -16.9°
